Regional Weather Roundup
Issued by NWS

Home | Current Version | Previous Version | Graphics & Text | Print | Product List | Glossary On
Versions: 1 2 3 4 5 6 7 8 9 10 11 12 13 14 15 16 17 18 19 20 21 22 23 24 25 26 27 28 29 30 31 32 33 34 35 36 37 38 39 40 41 42 43 44 45 46 47 48 49 50
000
ASUS43 KIND 152009
RWRIN

WEATHER ROUNDUP FOR INDIANA
NATIONAL WEATHER SERVICE INDIANAPOLIS IN
300 PM EST MON JAN 15 2018

NOTE: "FAIR" INDICATES FEW OR NO CLOUDS BELOW 12,000 FEET WITH NO
SIGNIFICANT WEATHER AND/OR OBSTRUCTIONS TO VISIBILITY.

* - STATION DOES NOT REPORT WEATHER SUCH AS PRECIPITATION OR FOG.

+ - STATION NOT QUALITY CONTROLLED BY THE NATIONAL WEATHER SERVICE.
    USE DATA WITH CAUTION...ESPECIALLY DEWPOINT AND RELATIVE
    HUMIDITY OBSERVATIONS.

INZ001>003-010>013-019-020-152100-
NORTHWEST INDIANA

CITY           SKY/WX    TMP DP  RH WIND       PRES   REMARKS
GARY /AIRPORT/ LGT SNOW  19  14  79 W17       30.17R WCI   4
KNOX *+        CLOUDY    25  21  86 SW6       30.15R WCI  18
LA PORTE +     LGT SNOW  23  20  86 SW5       30.14S WCI  17
MICHIGAN CITY+ LGT SNOW  25  19  80 S5        30.15R WCI  19
MONTICELLO +   FLURRIES  18  12  79 W15       30.19R WCI   3
RENSSELAER +   CLOUDY    18  10  73 W14       30.20R WCI   4
VALPARAISO     CLOUDY    22  16  78 SW12      30.15R HAZE    WCI  10

$$

LMZ046-743>745-152100-
SOUTHERN LAKE MICHIGAN

STATION/POSITION TIME  TEMP    WIND        PRES    WAVE
                       AIR SEA DIR/SP/G            HT
                 (UTC) (F)     (DEG/KT/KT) (MB)    (FT)
BURNS HARBOR     2000   21     240/ 14/ 18 1021.7
MICHIGAN CITY    1940          180/  5/  6   N/A

$$

INZ004-005-014>016-021>024-152100-
NORTH CENTRAL INDIANA

CITY           SKY/WX    TMP DP  RH WIND       PRES   REMARKS
ELKHART        LGT SNOW  21  18  86 CALM      30.15S
GOSHEN         LGT SNOW  22  17  81 S9        30.15S WCI  12
LOGANSPORT +   LGT SNOW  25  21  86 W15       30.17R WCI  12
PERU/GRISSOM   LGT SNOW  24  24 100 SW13      30.16R FOG     WCI  12
ROCHESTER +    LGT SNOW  28  25  86 SW7       30.16R WCI  21
SOUTH BEND     LGT SNOW  22  18  85 S5        30.14F FOG     WCI  16
WARSAW +       LGT SNOW  23  19  86 SW5       30.15R WCI  17

$$

INZ006>009-017-018-025>027-152100-
NORTHEAST INDIANA

CITY           SKY/WX    TMP DP  RH WIND       PRES   REMARKS
AUBURN +       LGT SNOW  25  19  80 S5        30.17S WCI  19
FORT WAYNE     LGT SNOW  23  20  88 SW12      30.17S FOG     WCI  12
HUNTINGTON +   LGT SNOW  22  20  92 SW8       30.16F WCI  13
KENDALLVILLE + LGT SNOW  22  18  87 S5        30.15S WCI  15

$$

INZ028-029-035-036-043>045-051>053-152100-
WEST CENTRAL INDIANA

CITY           SKY/WX    TMP DP  RH WIND       PRES   REMARKS
CRAWFORDSVL +  FLURRIES  21  19  92 MISG        N/A
GREENCASTLE +  CLOUDY    25  19  80 W6        30.22R WCI  18
LAFAYETTE      CLOUDY    18  14  84 W16       30.22R WCI   3
TERRE HAUTE    CLOUDY    21  14  74 NW12      30.27R WCI   9

$$

INZ030>032-037>040-046>048-054>057-064-065-152100-
CENTRAL INDIANA

CITY           SKY/WX    TMP DP  RH WIND       PRES   REMARKS
FISHERS *+     CLOUDY    23  23 100 SW7       30.20R WCI  15
FRANKFORT +    LGT SNOW  24  20  84 NW18G24   30.20R WCI  11
GREENWOOD *+   CLOUDY    26  23  88 W8        30.21R WCI  18
INDIANAPOLIS   LGT SNOW  24  23  96 SW13      30.21R FOG     WCI  12
-EAGLE CREEK   LGT SNOW  24  22  91 VRB5      30.20R FOG     WCI  18
KOKOMO +       LGT SNOW  24  22  91 SW14      30.18R FOG     WCI  12
MARION +       LGT SNOW  23  21  92 SW6       30.18R WCI  15
MT COMFORT *+  CLOUDY    23  23 100 SW10      30.19S WCI  12
SHELBYVILLE    CLOUDY    26  22  84 W10       30.21R FOG     WCI  16
ZIONSVILLE +   LGT SNOW  23  22  96 SW14G20   30.19R WCI  11

$$

INZ033-034-041-042-049-050-058-059-152100-
EAST CENTRAL INDIANA

CITY           SKY/WX    TMP DP  RH WIND       PRES   REMARKS
MUNCIE         CLOUDY    24  20  84 SW7       30.18R FOG     WCI  16
RICHMOND +     CLOUDY    25  23  93 W12       30.19R WCI  14

$$

INZ060-061-067>069-081>083-085>088-152100-
SOUTHWEST INDIANA

CITY           SKY/WX    TMP DP  RH WIND       PRES   REMARKS
EVANSVILLE     LGT SNOW  29  27  92 W9        30.31S FOG     WCI  20
HUNTINGBURG +  LGT SNOW  28  27  93 SW9       30.30R VSB 1   WCI  20
WASHINGTON +   CLOUDY    28  24  84 W9        30.28R WCI  19

$$

INZ062-063-066-070>080-084-089>092-152100-
SOUTH CENTRAL AND SOUTHEAST INDIANA

CITY           SKY/WX    TMP DP  RH WIND       PRES   REMARKS
BATESVILLE *+    N/A    N/A N/A N/A MISG        N/A
BEDFORD +      CLOUDY    27  23  86 SW9       30.24R WCI  17
BLOOMINGTON    CLOUDY    26  23  88 W10       30.23R FOG     WCI  16
MADISON *+     CLOUDY    30  27  86 SW9       30.26R WCI  22
NORTH VERNON + LGT SNOW  25  23  93 SW9       30.23R WCI  15
SEYMOUR +      LGT SNOW  28  25  86 SW9       30.26R WCI  20

$$





USA.gov is the U.S. government's official web portal to all federal, state and local government web resources and services.